| time (UTC) | temp F | wind direction | speed MPH | gust MPH | rain 1hr in | rain 24hr in | rain mn in | humidity % | barometer mb |
| 20260504110506 | 51 | 245 | 15.0 | 19.0 | 0.00 | 0.00 | 0.00 | 1016.0 | |
| 20260504100506 | 50 | 245 | 13.0 | 16.0 | 0.00 | 0.00 | 0.00 | 1016.0 | |
| 20260504080505 | 49 | 243 | 8.0 | 11.0 | 0.00 | 0.07 | 0.00 | 1016.0 | |
| 20260504050505 | 47 | 213 | 5.0 | 7.0 | 0.00 | 0.07 | 0.00 | 1016.0 | |
| 20260504043506 | 47 | 214 | 4.0 | 6.0 | 0.00 | 0.07 | 0.00 | 1016.0 | |
| 20260504040506 | 47 | 214 | 4.0 | 6.0 | 0.00 | 0.07 | 0.00 | 1016.0 | |
| 20260504033506 | 47 | 217 | 4.0 | 7.0 | 0.00 | 0.07 | 0.00 | 1016.0 | |
| 20260504030505 | 47 | 217 | 4.0 | 7.0 | 0.00 | 0.07 | 0.00 | 1016.0 | |
| 20260504023506 | 46 | 214 | 5.0 | 7.0 | 0.00 | 0.07 | 0.00 | 1016.0 | |
| 20260504020505 | 46 | 214 | 5.0 | 7.0 | 0.00 | 0.07 | 0.00 | 1016.0 | |
| 20260504013506 | 46 | 204 | 5.0 | 8.0 | 0.00 | 0.07 | 0.00 | 1016.0 | |
| 20260504010506 | 46 | 204 | 5.0 | 8.0 | 0.00 | 0.07 | 0.00 | 1016.0 | |
| 20260504003506 | 46 | 191 | 5.0 | 7.0 | 0.00 | 0.07 | 0.00 | 1016.0 | |
| 20260504000506 | 46 | 182 | 5.0 | 7.0 | 0.00 | 0.07 | 0.00 | 1016.0 | |
| 20260503233506 | 46 | 168 | 4.0 | 6.0 | 0.00 | 0.07 | 0.00 | 1016.0 | |
| 20260503230506 | 46 | 168 | 4.0 | 6.0 | 0.00 | 0.07 | 0.00 | 1016.0 | |
| 20260503223505 | 47 | 144 | 3.0 | 5.0 | 0.00 | 0.07 | 0.00 | 1016.0 | |
| 20260503220506 | 47 | 144 | 3.0 | 5.0 | 0.00 | 0.07 | 0.00 | 1016.0 | |
| 20260503213505 | 47 | 114 | 4.0 | 6.0 | 0.00 | 0.07 | 0.00 | 1016.0 | |
| 20260503210505 | 47 | 114 | 4.0 | 6.0 | 0.00 | 0.07 | 0.00 | 1016.0 | |
| 20260503203505 | 47 | 99 | 4.0 | 7.0 | 0.00 | 0.07 | 0.00 | 1016.0 | |
| 20260503200505 | 47 | 99 | 4.0 | 7.0 | 0.00 | 0.07 | 0.00 | 1016.0 | |
| 20260503193505 | 47 | 102 | 5.0 | 7.0 | 0.00 | 0.07 | 0.00 | 1016.0 | |
| 20260503190505 | 47 | 102 | 5.0 | 7.0 | 0.00 | 0.07 | 0.00 | 1016.0 | |
| 20260503183506 | 47 | 101 | 7.0 | 10.0 | 0.00 | 0.07 | 0.00 | 1015.0 | |
| 20260503180505 | 47 | 101 | 8.0 | 11.0 | 0.00 | 0.07 | 0.00 | 1015.0 | |
| 20260503173506 | 47 | 85 | 9.0 | 12.0 | 0.00 | 0.07 | 0.00 | 1015.0 | |
| 20260503170506 | 47 | 85 | 9.0 | 12.0 | 0.00 | 0.07 | 0.00 | 1015.0 | |
| 20260503150506 | 47 | 64 | 12.0 | 16.0 | 0.00 | 0.07 | 0.00 | 1015.0 | |
| 20260503130505 | 47 | 59 | 14.0 | 18.0 | 0.00 | 0.07 | 0.00 | 1016.0 |